TimeAST,TemperatureF,Dew PointF,Humidity,Sea Level PressureIn,VisibilityMPH,Wind Direction,Wind SpeedMPH,Gust SpeedMPH,PrecipitationIn,Events,Conditions,WindDirDegrees,DateUTC
2:00 AM,70,68,91,29.98,10,Calm,Calm,,,,Scattered Clouds,,2012-12-22 06:00:00
2:00 AM,69.8,68.0,94,29.98,6.2,Calm,Calm,-,N/A,,Partly Cloudy,0,2012-12-22 06:00:00
5:00 AM,70,68,91,29.98,10,Calm,Calm,,,,Scattered Clouds,,2012-12-22 09:00:00
5:00 AM,69.8,68.0,94,29.98,6.2,Calm,Calm,-,N/A,,Partly Cloudy,0,2012-12-22 09:00:00
8:00 AM,68,67,96,29.98,10,Calm,Calm,,,,Scattered Clouds,,2012-12-22 12:00:00
8:00 AM,68.0,68.0,100,29.98,6.2,Calm,Calm,-,N/A,,Partly Cloudy,0,2012-12-22 12:00:00
9:00 AM,71.6,69.8,94,30.01,6.2,Calm,Calm,-,N/A,,Scattered Clouds,0,2012-12-22 13:00:00
10:00 AM,77.0,71.6,83,30.01,6.2,Calm,Calm,-,N/A,,Scattered Clouds,0,2012-12-22 14:00:00
11:00 AM,78.8,73.4,83,30.01,6.2,Calm,Calm,-,N/A,,Scattered Clouds,0,2012-12-22 15:00:00
12:00 PM,80.6,71.6,74,30.01,6.2,Calm,Calm,-,N/A,,Scattered Clouds,0,2012-12-22 16:00:00
1:00 PM,80.6,71.6,74,29.98,6.2,North,4.6,-,N/A,,Scattered Clouds,360,2012-12-22 17:00:00
2:00 PM,82,72,64,29.98,10,NNE,6.7,,,,Partly Cloudy,20,2012-12-22 18:00:00
2:00 PM,82.4,71.6,70,29.98,6.2,NNE,5.8,-,N/A,,Scattered Clouds,20,2012-12-22 18:00:00
3:00 PM,78.8,69.8,74,29.98,6.2,North,11.5,-,N/A,,Scattered Clouds,360,2012-12-22 19:00:00
4:00 PM,80.6,69.8,70,29.95,6.2,North,8.1,-,N/A,,Scattered Clouds,360,2012-12-22 20:00:00
5:00 PM,79,71,69,29.98,10,North,6.7,,,,Partly Cloudy,0,2012-12-22 21:00:00
5:00 PM,78.8,71.6,78,29.98,6.2,North,6.9,-,N/A,,Scattered Clouds,360,2012-12-22 21:00:00
6:00 PM,78.8,68.0,69,29.98,6.2,North,6.9,-,N/A,,Scattered Clouds,360,2012-12-22 22:00:00
7:00 PM,77.0,69.8,78,29.98,6.2,North,10.4,-,N/A,,Scattered Clouds,360,2012-12-22 23:00:00
8:00 PM,77,67,63,30.01,10,North,6.7,,,,Partly Cloudy,0,2012-12-23 00:00:00
8:00 PM,77.0,66.2,69,30.01,6.2,North,6.9,-,N/A,,Scattered Clouds,360,2012-12-23 00:00:00
11:00 PM,73.4,68.0,83,30.01,6.2,Calm,Calm,-,N/A,,Scattered Clouds,0,2012-12-23 03:00:00